• Join FlightAware (Why Join?)
  • Login
  • US Flag GB Flag 
16:48 EDT


 

Airport Tracker/Info


-or-


 

Live Flight TrackerFlight Track Log ✈ SWA2702 ✈ 06-Apr-2013 ✈ KHOU - KMAF

Flight Track Log - Related Links

Times and Time Zones

All times are in EDT time to prevent confusion due to time zone crossing. See the SWA2702 flight status page for this flight to view local times or setup timezone preferences in your user account.

Time Position Orientation Groundspeed Altitude Reporting Facility
EDT Latitude Longitude Course Direction KTS MPH feet Rate Location/Type
20:52 29.6356 -95.2914 226° Southwest 152 175 800  Level Houston Center
20:53 29.5958 -95.3394 226° Southwest 220 253 3,700 2,640 Climbing Houston Center
20:54 29.5844 -95.3525 225° Southwest 214 246 4,500 3,660 Climbing Houston Center
20:54 29.5722 -95.4025 254° West 268 308 7,100 3,600 Climbing Houston Center
20:55 29.5753 -95.4306 277° West 258 297 8,200 2,700 Climbing Houston Center
20:56 29.5969 -95.5172 286° West 288 331 10,900 2,880 Climbing Houston Center
20:57 29.6439 -95.6094 300° West 328 377 14,200 3,060 Climbing Houston Center
20:58 29.6892 -95.7031 299° West 334 384 17,200 2,640 Climbing Houston Center
20:59 29.7364 -95.8003 299° West 347 399 19,600 2,160 Climbing Houston Center
21:00 29.7797 -95.9078 295° West 369 425 21,600 2,100 Climbing Houston Center
21:01 29.8211 -96.0169 294° West 379 436 23,900 2,100 Climbing Houston Center
21:02 29.8650 -96.1292 294° West 384 442 25,900 2,280 Climbing Houston Center
21:03 29.9181 -96.2661 294° West 391 450 28,600 2,220 Climbing Houston Center
21:04 29.9600 -96.3772 294° West 382 440 30,500 1,440 Climbing Houston Center
21:05 30.0044 -96.4931 294° West 394 453 31,600 1,500 Climbing Houston Center
21:06 30.0483 -96.6092 294° West 396 456 33,600 1,500 Climbing Houston Center
21:07 30.0914 -96.7219 294° West 389 448 34,700 1,140 Climbing Houston Center
21:08 30.1403 -96.8506 294° West 395 455 36,000 600 Climbing Houston Center
21:09 30.1833 -96.9675 293° West 392 451 36,000  Level Houston Center
21:10 30.2272 -97.0842 294° West 392 451 36,000  Level Houston Center
21:11 30.2714 -97.2022 293° West 394 453 36,000  Level Houston Center
21:12 30.3156 -97.3186 294° West 390 449 36,000  Level Houston Center
21:13 30.3597 -97.4367 293° West 393 452 36,000  Level Houston Center
21:14 30.4022 -97.5539 293° West 390 449 36,000  Level Houston Center
21:15 30.4464 -97.6722 293° West 392 451 36,000  Level Houston Center
21:16 30.4894 -97.7894 293° West 390 449 36,000  Level Houston Center
21:17 30.5336 -97.9078 293° West 394 453 36,000  Level Houston Center
21:18 30.5767 -98.0261 293° West 393 452 36,000  Level Houston Center
21:19 30.6208 -98.1453 293° West 397 457 36,000  Level Houston Center
21:20 30.6639 -98.2644 293° West 396 456 36,000  Level Houston Center
21:21 30.7064 -98.3839 293° West 396 456 36,000  Level Houston Center
21:22 30.7503 -98.5036 293° West 398 458 36,000  Level Houston Center
21:23 30.7931 -98.6236 293° West 398 458 36,000  Level Houston Center
21:24 30.8361 -98.7433 293° West 397 457 36,000  Level Houston Center
21:25 30.8803 -98.8622 293° West 395 455 36,000  Level Houston Center
21:26 30.9214 -98.9828 292° West 397 457 36,000  Level Houston Center
21:27 30.9636 -99.1000 293° West 391 450 36,000  Level Houston Center
21:28 31.0022 -99.2097 292° West 387 445 36,000  Level Houston Center
21:29 31.0428 -99.3244 292° West 384 442 36,000  Level Houston Center
21:30 31.0833 -99.4392 292° West 385 443 36,000  Level Houston Center
21:31 31.1236 -99.5522 293° West 378 435 36,000  Level Houston Center
21:32 31.1694 -99.6875 292° West 379 436 36,000  Level Houston Center
21:33 31.2100 -99.8011 293° West 376 433 36,000  Level Houston Center
21:34 31.2489 -99.9158 292° West 383 441 36,000  Level Houston Center
21:35 31.2889 -100.0297 292° West 378 435 36,000 -540 Level Houston Center
21:36 31.3283 -100.1436 292° West 378 435 35,000 -1,080 Descending Houston Center
21:37 31.3686 -100.2617 292° West 388 447 33,900 -1,020 Descending Houston Center
21:38 31.3961 -100.3433 292° West 376 433 33,300 -960 Descending Fort Worth Center
21:39 31.4353 -100.4592 292° West 376 433 32,300 -1,020 Descending Fort Worth Center
21:40 31.4742 -100.5725 292° West 376 433 31,300 1,800 Descending Fort Worth Center
21:41 31.5189 -100.7008 292° West 376 433 36,000 -3,180 Climbing Fort Worth Center
21:42 31.5575 -100.8239 290° West 386 444 25,000 -6,360 Descending Fort Worth Center
21:43 31.5981 -100.9375 293° West 391 450 23,300 -1,740 Descending Fort Worth Center
21:44 31.6328 -101.0414 291° West 367 422 21,600 -2,040 Descending Fort Worth Center
21:45 31.6653 -101.1378 292° West 340 391 19,300 -2,340 Descending Fort Worth Center
21:46 31.6961 -101.2319 291° West 327 376 17,000 -2,280 Descending Fort Worth Center
21:47 31.7325 -101.3311 293° West 316 364 14,800 -1,560 Descending Fort Worth Center
21:48 31.7611 -101.4228 290° West 311 358 13,900 -1,020 Descending Fort Worth Center
21:49 31.7872 -101.5142 289° West 311 358 12,800 -900 Descending Fort Worth Center
21:50 31.8219 -101.6064 294° West 311 358 12,200 -900 Descending Fort Worth Center
21:51 31.8417 -101.6978 284° West 305 351 11,000 -1,440 Descending Fort Worth Center
21:52 31.8553 -101.7864 280° West 291 335 9,400 -1,560 Descending Fort Worth Center
21:53 31.8692 -101.8700 281° West 280 322 7,900 -1,560 Descending Fort Worth Center
21:54 31.8850 -101.9542 283° West 275 316 6,300 -1,020 Descending Fort Worth Center
21:55 31.8967 -102.0281 281° West 257 296 5,900 -720 Descending Fort Worth Center
21:56 31.8989 -102.0869 273° West 219 252 4,900 -960 Descending Fort Worth Center
21:57 31.9158 -102.1342 293° West 181 208 4,000 -780 Descending Fort Worth Center
21:58 31.9311 -102.1692 297° West 145 167 3,400 -600 Descending Fort Worth Center
21:59 31.9422 -102.2089 288° West 136 157 2,900 -540 Descending Fort Worth Center